FW2728 Weather Reports


Display with metric or nautical units.
time (UTC)temp
F
wind
direction
speed
MPH
gust
MPH
rain 1hr
in
rain 24hr
in
rain mn
in
humidity
%
barometer
mb
20260904013017 86 122 3.0 9.0 0.00 0.00 0.00 62 1011.7
20260904012017 86 135 2.0 7.0 0.00 0.00 0.00 59 1011.6
20260904011017 87 143 3.0 7.0 0.00 0.00 0.00 57 1011.6
20260904010017 87 138 3.0 8.0 0.00 0.00 0.00 56 1011.5
20260904005037 87 165 3.0 6.0 0.00 0.00 0.00 57 1011.5
20260904004018 88 147 2.0 6.0 0.00 0.00 0.00 58 1011.5
20260904003038 88 163 3.0 8.0 0.00 0.00 0.00 58 1011.4
20260904002015 89 122 3.0 8.0 0.00 0.00 0.00 58 1011.5
20260904001018 89 145 3.0 9.0 0.00 0.00 0.00 57 1011.5
20260904000018 90 155 3.0 7.0 0.00 0.00 0.00 57 1011.3
20260903235015 91 133 3.0 9.0 0.00 0.00 0.00 57 1011.3
20260903234016 91 133 2.0 8.0 0.00 0.00 0.00 56 1011.2
20260903233016 91 113 2.0 10.0 0.00 0.00 0.00 56 1011.1
20260903232016 91 144 3.0 9.0 0.00 0.00 0.00 56 1011.1
20260903231016 92 131 3.0 8.0 0.00 0.00 0.00 56 1011.0
20260903230016 92 117 3.0 9.0 0.00 0.00 0.00 55 1010.9
20260903225016 92 142 3.0 8.0 0.00 0.00 0.00 56 1010.8
20260903224017 93 118 4.0 9.0 0.00 0.00 0.00 55 1010.8
20260903223037 93 117 3.0 7.0 0.00 0.00 0.00 54 1010.9
20260903222017 93 215 3.0 9.0 0.00 0.00 0.00 55 1010.9
20260903221058 93 116 3.0 9.0 0.00 0.00 0.00 55 1011.0
20260903220017 93 144 3.0 9.0 0.00 0.00 0.00 55 1011.0
20260903215018 94 173 3.0 6.0 0.00 0.00 0.00 54 1011.0
20260903214038 93 156 2.0 6.0 0.00 0.00 0.00 55 1011.0
20260903213038 92 150 2.0 6.0 0.00 0.00 0.00 57 1011.1
20260903212018 92 154 3.0 7.0 0.00 0.00 0.00 56 1011.2
20260903211015 92 178 3.0 7.0 0.00 0.00 0.00 58 1011.4
20260903210056 91 144 2.0 6.0 0.00 0.00 0.00 60 1011.5
20260903205016 91 142 3.0 8.0 0.00 0.00 0.00 60 1011.8
20260903204016 91 208 3.0 8.0 0.00 0.00 0.00 60 1011.8
20260903203016 91 201 3.0 9.0 0.00 0.00 0.00 59 1011.8
20260903202016 91 148 3.0 7.0 0.00 0.00 0.00 58 1011.8
20260903201017 90 127 2.0 6.0 0.00 0.00 0.00 61 1011.9
20260903200017 90 173 3.0 7.0 0.00 0.00 0.00 62 1012.0
20260903195037 89 204 4.0 9.0 0.00 0.00 0.00 63 1012.1
20260903194017 89 189 3.0 9.0 0.00 0.00 0.00 63 1012.1
20260903193017 89 183 4.0 8.0 0.00 0.00 0.00 64 1012.3
20260903192037 91 179 4.0 9.0 0.00 0.00 0.00 62 1012.4
20260903191018 90 174 3.0 10.0 0.00 0.00 0.00 62 1012.5
20260903190018 88 219 3.0 10.0 0.00 0.00 0.00 65 1012.6
20260903185017 87 183 3.0 7.0 0.00 0.00 0.00 66 1013.0
20260903184018 87 193 5.0 11.0 0.00 0.00 0.00 69 1013.2
20260903183018 87 174 4.0 8.0 0.00 0.00 0.00 69 1013.3
20260903182018 87 169 3.0 9.0 0.00 0.00 0.00 68 1013.2
20260903181015 87 152 3.0 9.0 0.00 0.00 0.00 70 1013.3
20260903180016 87 181 4.0 9.0 0.00 0.00 0.00 68 1013.4
20260903175016 87 188 4.0 11.0 0.00 0.00 0.00 68 1013.5
20260903174015 87 177 3.0 8.0 0.00 0.00 0.00 68 1013.6
20260903173016 87 170 4.0 8.0 0.00 0.00 0.00 69 1013.7
20260903172016 87 170 4.0 10.0 0.00 0.00 0.00 68 1013.8
20260903171036 87 155 3.0 7.0 0.00 0.00 0.00 69 1013.8
20260903170037 87 199 3.0 10.0 0.00 0.00 0.00 69 1013.7
20260903165017 87 181 3.0 7.0 0.00 0.00 0.00 68 1013.7
20260903164036 86 186 3.0 6.0 0.00 0.00 0.00 70 1013.8
20260903163017 86 203 3.0 7.0 0.00 0.00 0.00 71 1013.9
20260903162017 85 194 2.0 7.0 0.00 0.00 0.00 72 1013.9
20260903161037 85 211 4.0 11.0 0.00 0.00 0.00 73 1013.9
20260903160018 84 150 3.0 7.0 0.00 0.00 0.00 74 1013.9
20260903155016 84 173 3.0 7.0 0.00 0.00 0.00 74 1013.9
20260903154016 83 212 2.0 6.0 0.00 0.00 0.00 75 1013.8
20260903153016 83 151 2.0 7.0 0.00 0.00 0.00 76 1013.8
20260903152036 82 125 2.0 5.0 0.00 0.00 0.00 77 1013.8
20260903151015 81 197 1.0 6.0 0.00 0.00 0.00 78 1013.7
20260903150015 81 127 2.0 6.0 0.00 0.00 0.00 79 1013.9
20260903145015 81 113 2.0 5.0 0.00 0.00 0.00 79 1014.1
20260903144016 81 112 2.0 6.0 0.00 0.00 0.00 78 1014.0
20260903143036 81 116 2.0 6.0 0.00 0.00 0.00 78 1013.9
20260903142016 81 136 2.0 6.0 0.00 0.00 0.00 78 1013.8
20260903141016 80 155 2.0 7.0 0.00 0.00 0.00 78 1013.8
20260903140017 80 155 2.0 5.0 0.00 0.00 0.00 79 1013.8
20260903135016 79 128 1.0 5.0 0.00 0.00 0.00 80 1013.8
20260903134016 79 111 2.0 5.0 0.00 0.00 0.00 80 1013.8
20260903133017 79 98 1.0 4.0 0.00 0.00 0.00 81 1013.7
20260903132017 78 124 2.0 5.0 0.00 0.00 0.00 81 1013.6
20260903131017 78 145 1.0 4.0 0.00 0.00 0.00 82 1013.6
20260903130017 78 110 2.0 5.0 0.00 0.00 0.00 82 1013.7
20260903125018 78 95 1.0 5.0 0.00 0.00 0.00 83 1013.7
20260903124038 77 125 1.0 4.0 0.00 0.00 0.00 83 1013.5
20260903123018 77 102 2.0 5.0 0.00 0.00 0.00 83 1013.5
20260903122019 77 104 1.0 3.0 0.00 0.00 0.00 83 1013.5
20260903121058 77 135 1.0 3.0 0.00 0.00 0.00 82 1013.3
20260903120016 77 131 1.0 4.0 0.00 0.00 0.00 82 1013.3
20260903115016 78 100 1.0 3.0 0.00 0.00 0.00 81 1013.3
20260903114016 78 100 1.0 4.0 0.00 0.00 0.00 81 1013.3
20260903113016 78 104 2.0 4.0 0.00 0.00 0.00 81 1013.2
20260903112017 78 98 1.0 3.0 0.00 0.00 0.00 81 1013.3
20260903111016 78 100 1.0 3.0 0.00 0.00 0.00 81 1013.2
20260903110016 78 104 1.0 4.0 0.00 0.00 0.00 80 1013.1
20260903105017 78 100 1.0 3.0 0.00 0.00 0.00 80 1013.0
20260903104017 78 107 1.0 3.0 0.00 0.00 0.00 80 1013.0
20260903103017 78 86 1.0 3.0 0.00 0.00 0.00 80 1013.0
20260903102017 78 108 1.0 3.0 0.00 0.00 0.00 80 1013.0
20260903101017 78 101 1.0 4.0 0.00 0.00 0.00 80 1013.0
20260903100018 77 101 1.0 3.0 0.00 0.00 0.00 79 1013.0
20260903095018 77 63 1.0 3.0 0.00 0.00 0.00 80 1013.0
20260903094018 77 93 1.0 2.0 0.00 0.00 0.00 80 1013.0
20260903093038 77 73 0.0 2.0 0.00 0.00 0.00 80 1013.0
20260903092038 77 174 0.0 1.0 0.00 0.00 0.00 79 1012.9
20260903091058 78 77 1.0 2.0 0.00 0.00 0.00 78 1012.9
20260903090015 78 49 1.0 4.0 0.00 0.00 0.00 78 1012.9
20260903085035 78 52 0.0 2.0 0.00 0.00 0.00 77 1012.9
20260903084016 78 30 0.0 1.0 0.00 0.00 0.00 76 1012.9
20260903083016 79 225 0.0 1.0 0.00 0.00 0.00 76 1013.1
20260903082016 79 218 1.0 3.0 0.00 0.00 0.00 76 1013.1
20260903081017 79 221 0.0 2.0 0.00 0.00 0.00 76 1012.9
20260903080016 79 227 0.0 3.0 0.00 0.00 0.00 75 1012.9
20260903075057 79 143 1.0 2.0 0.00 0.00 0.00 75 1013.0
20260903074016 79 205 0.0 2.0 0.00 0.00 0.00 74 1013.1
20260903073017 80 171 1.0 3.0 0.00 0.00 0.00 73 1013.2
20260903072017 80 183 0.0 2.0 0.00 0.00 0.00 73 1013.2
20260903071037 80 197 1.0 3.0 0.00 0.00 0.00 72 1013.2
20260903070037 80 215 1.0 3.0 0.00 0.00 0.00 72 1013.1
20260903065018 80 205 1.0 2.0 0.00 0.00 0.00 71 1013.1
20260903064018 81 211 0.0 2.0 0.00 0.00 0.00 71 1013.3
20260903063018 81 189 1.0 4.0 0.00 0.00 0.00 70 1013.4
20260903062036 81 127 2.0 5.0 0.00 0.00 0.00 69 1013.4
20260903061015 81 191 1.0 5.0 0.00 0.00 0.00 69 1013.5
20260903060015 82 110 1.0 4.0 0.00 0.00 0.00 68 1013.5
20260903055016 82 176 1.0 4.0 0.00 0.00 0.00 67 1013.7
20260903054016 82 114 2.0 6.0 0.00 0.00 0.00 67 1013.8
20260903053016 83 93 3.0 8.0 0.00 0.00 0.00 66 1013.7
20260903052016 83 101 3.0 7.0 0.00 0.00 0.00 65 1013.6
20260903051017 83 108 2.0 5.0 0.00 0.00 0.00 65 1013.6
20260903050017 84 110 2.0 5.0 0.00 0.00 0.00 64 1013.6
20260903045018 84 94 3.0 6.0 0.00 0.00 0.00 63 1013.5
20260903044018 84 117 3.0 7.0 0.00 0.00 0.00 62 1013.5
20260903043018 84 103 2.0 6.0 0.00 0.00 0.00 62 1013.4
20260903042018 85 88 2.0 6.0 0.00 0.00 0.00 62 1013.4
20260903041015 85 93 2.0 5.0 0.00 0.00 0.00 62 1013.5
20260903040016 86 103 3.0 8.0 0.00 0.00 0.00 61 1013.5
20260903035035 86 103 3.0 6.0 0.00 0.00 0.00 61 1013.5
20260903034016 86 95 3.0 8.0 0.00 0.00 0.00 59 1013.4
20260903033016 87 97 2.0 6.0 0.00 0.00 0.00 58 1013.3
20260903032056 87 114 2.0 7.0 0.00 0.00 0.00 57 1013.3
20260903031016 87 105 4.0 9.0 0.00 0.00 0.00 57 1013.2
20260903030017 88 94 3.0 9.0 0.00 0.00 0.00 56 1013.1
20260903025017 88 116 2.0 6.0 0.00 0.00 0.00 56 1013.0
20260903024017 89 90 3.0 9.0 0.00 0.00 0.00 55 1012.8
20260903023017 89 104 3.0 9.0 0.00 0.00 0.00 54 1012.7
20260903022017 90 106 2.0 8.0 0.00 0.00 0.00 53 1012.6
20260903021017 90 120 2.0 7.0 0.00 0.00 0.00 53 1012.4
20260903020018 90 120 3.0 7.0 0.00 0.00 0.00 52 1012.2
20260903015018 91 114 3.0 8.0 0.00 0.00 0.00 51 1012.1
20260903014018 91 117 3.0 9.0 0.00 0.00 0.00 51 1012.1